Regional Weather Roundup
Issued by NWS

Home | Current Version | Previous Version | Text Only | Print | Product List | Glossary On
Versions: 1 2 3 4 5 6 7 8 9 10 11 12 13 14 15 16 17 18 19 20 21 22 23 24 25 26 27 28 29 30 31 32 33 34 35 36 37 38 39 40 41 42 43 44 45 46 47 48 49 50
000
ASUS43 KIND 172000
RWRIN

WEATHER ROUNDUP FOR INDIANA
NATIONAL WEATHER SERVICE INDIANAPOLIS IN
400 PM EDT THU AUG 17 2017

NOTE: "FAIR" INDICATES FEW OR NO CLOUDS BELOW 12,000 FEET WITH NO
SIGNIFICANT WEATHER AND/OR OBSTRUCTIONS TO VISIBILITY.

* - STATION DOES NOT REPORT WEATHER SUCH AS PRECIPITATION OR FOG.

+ - STATION NOT QUALITY CONTROLLED BY THE NATIONAL WEATHER SERVICE.
    USE DATA WITH CAUTION...ESPECIALLY DEWPOINT AND RELATIVE
    HUMIDITY OBSERVATIONS.

INZ001>003-010>013-019-020-172100-
NORTHWEST INDIANA

CITY           SKY/WX    TMP DP  RH WIND       PRES   REMARKS
GARY /AIRPORT/ PTSUNNY   82  66  57 SW17G29   29.74F
MICHIGAN CITY+ CLOUDY    82  68  61 SW17G24   29.75F
MONTICELLO +   PTSUNNY   84  70  62 SW13G22   29.78F
RENSSELAER +   PTSUNNY   81  64  57 SW20G25   29.79S

$$

LMZ046-743>745-172100-
SOUTHERN LAKE MICHIGAN

STATION/POSITION TIME  TEMP    WIND        PRES    WAVE
                       AIR SEA DIR/SP/G            HT
                 (UTC) (F)     (DEG/KT/KT) (MB)    (FT)
BURNS HARBOR     1940   80     230/ 15/ 25 1007.8S
MICHIGAN CITY    1930   77     230/ 19/ 21   N/A
5NW MICH CITY    1950   78 75  230/ 14/ 19   N/A     3

$$

INZ004-005-014>016-021>024-172100-
NORTH CENTRAL INDIANA

CITY           SKY/WX    TMP DP  RH WIND       PRES   REMARKS
ELKHART        PTSUNNY   81  68  65 SW12G17   29.75F
GOSHEN         MOSUNNY   82  69  64 SW14      29.77F
SOUTH BEND     CLOUDY    84  71  65 SW16G22   29.75F
WARSAW +       CLOUDY    82  70  65 SW14      29.79S

$$

INZ006>009-017-018-025>027-172100-
NORTHEAST INDIANA

CITY           SKY/WX    TMP DP  RH WIND       PRES   REMARKS
FORT WAYNE     PTSUNNY   83  67  58 SW14G25   29.79F
KENDALLVILLE + CLOUDY    80  70  72 SW12G20   29.79S

$$

INZ028-029-035-036-043>045-051>053-172100-
WEST CENTRAL INDIANA

CITY           SKY/WX    TMP DP  RH WIND       PRES   REMARKS
LAFAYETTE      MOSUNNY   81  70  69 W14G20    29.79F
TERRE HAUTE    PTSUNNY   84  70  62 SW12      29.84F

$$

INZ030>032-037>040-046>048-054>057-064-065-172100-
CENTRAL INDIANA

CITY           SKY/WX    TMP DP  RH WIND       PRES   REMARKS
COLUMBUS       PTSUNNY   84  66  54 SW17G24   29.85F
GREENWOOD *+   MOSUNNY   85  66  54 W15G26    29.84F
INDIANAPOLIS   PTSUNNY   84  68  58 W21       29.82F
-EAGLE CREEK   PTSUNNY   83  67  58 W10G23    29.82F
KOKOMO +       CLOUDY    81  70  69 W18       29.82F
MT COMFORT *+  CLOUDY    84  66  54 SW14G25   29.84F
SHELBYVILLE    CLOUDY    85  68  56 SW14G23   29.83F

$$

INZ033-034-041-042-049-050-058-059-172100-
EAST CENTRAL INDIANA

CITY           SKY/WX    TMP DP  RH WIND       PRES   REMARKS
MUNCIE         PTSUNNY   86  69  56 W14G24    29.81F
RICHMOND +     PTSUNNY   81  73  78 W13       29.86F

$$

INZ060-061-067>069-081>083-085>088-172100-
SOUTHWEST INDIANA

CITY           SKY/WX    TMP DP  RH WIND       PRES   REMARKS
EVANSVILLE     MOSUNNY   89  68  49 SW14      29.86F
HUNTINGBURG +  MOSUNNY   89  72  56 SW15      29.87F HX  96

$$

INZ062-063-066-070>080-084-089>092-172100-
SOUTH CENTRAL AND SOUTHEAST INDIANA

CITY           SKY/WX    TMP DP  RH WIND       PRES   REMARKS
BLOOMINGTON    CLOUDY    86  65  49 W12G25    29.86F
MADISON *+     CLOUDY    79  72  78 SW5       29.90S
SEYMOUR +      CLOUDY    91  72  52 SW15G21   29.84F HX  98

$$





USA.gov is the U.S. government's official web portal to all federal, state and local government web resources and services.